Weather in Shugurovo

Russia / Penza Oblast     53°24′39″N   46°28′27″E
temp.,
°C
wind,
m/s
gust,
m/s
humid.,
%
clouds,
%
prec.,
mm/h
press.,
hPa
HPBL,
m
7 march, sun
sun700:00−11nw119699 0.2 101321
03:00−12wnw129796 0.3 101321
06:00−13wnw239795 0.2 101322
09:00−11wsw469465 0.3 1013229
12:00−7sw698630 0.0 1012852
15:00−7sw7118665 0.0 1008886
18:00−7ssw91693100 0.3 1006936
21:00−6sw101793100 1.8 10021141
8 march, mon
mon800:00−5sw101793100 1.3 998997
03:00−4sw101794100 2.2 9961101
06:00−6w7148492 0.7 998739
09:00−7w8148171 0.7 10011021
12:00−4wsw8127733 0.0 10021376
15:00−4wsw7108565 0.1 10021097
18:00−5sw4896100 0.4 1002263
21:00−6w41095100 2.4 1004565
9 march, tue
tue900:00−9wsw5109497 0.1 1005279
03:00−14w489780 0.1 1007131
06:00−17wnw349855 0.0 100965
09:00−13w359563 0.0 1010241
12:00−9wnw469299 0.0 1011430
15:00−9wnw468999 0.1 1012635
18:00−13wnw3696100 0.1 1012123
21:00−15nw3397100 0.1 101480
10 march, wed
wed1000:00−17nw349898 0.0 101572
03:00−21nw3510083 0.1 101678
06:00−22nw479996 0.1 1018138
09:00−19nw479696 0.1 1019336
12:00−16nw5788100 0.1 1020707
15:00−16nw6788100 0.1 1021804
18:00−21nw4996100 0.1 1023197
21:00−26nw349991 0.1 102557
11 march, thu
thu1100:00−28nw34990 0.0 102646
03:00−28wnw34980 0.0 102743
06:00−27wnw34970 0.0 102870
09:00−21wnw599419 0.0 1028272
12:00−16wnw59890 0.0 1027402
15:00−13wnw610862 0.0 1027449
18:00−17wnw49910 0.0 1028181
21:00−19w45950 0.0 103079